Theta_e
341 341 340 341 343 344 341 338 333 325 325 331 335 341 340 341 345 347 350 349 345 345 342 341 343 345 349 351 352 353 353 353 353 353 353 354 356 358
343 341 342 344 343 344 342 343 337 331 327 332 338 341 345 346 347 341 342 347 346 343 341 341 341 342 344 346 348 348 349 349 350 350 350 349 350 352
342 341 341 342 342 340 341 343 340 336 332 335 339 341 341 342 343 344 346 341 342 342 341 340 339 339 341 342 342 343 344 345 346 347 348 348 348 348
343 342 342 345 341 342 342 341 341 340 337 333 336 340 341 343 343 343 348 352 350 347 339 337 336 335 335 336 336 337 336 337 339 341 344 345 347 346
344 342 341 340 341 341 341 341 341 343 339 337 336 338 340 341 341 342 342 341 346 345 338 338 336 335 333 332 331 330 328 329 331 333 336 338 341 344
344 344 343 342 342 342 341 341 341 339 337 337 336 337 339 340 339 337 336 337 338 345 344 339 339 340 337 332 331 330 326 323 325 326 329 330 333 337
344 344 345 347 345 343 344 342 341 339 338 336 335 335 335 335 335 337 336 337 337 337 335 335 336 336 337 336 339 337 331 327 324 322 324 324 326 328
341 343 345 346 345 341 340 341 343 341 337 336 335 335 335 336 336 337 334 330 327 334 327 325 331 328 332 336 334 331 330 328 326 324 322 320 322 325
344 345 346 350 345 347 341 337 337 336 340 341 339 339 337 337 337 332 330 329 327 328 322 319 325 325 331 331 327 327 326 327 328 324 322 321 321 319
345 345 345 345 345 345 345 343 342 342 339 341 343 342 340 340 338 335 332 325 321 322 322 316 321 323 328 329 326 324 322 321 323 323 322 319 316 315
343 344 344 343 337 332 342 341 341 341 337 331 333 332 331 331 334 327 324 320 319 318 321 319 320 321 322 325 323 324 320 316 316 318 320 321 317 316
342 341 334 340 329 326 339 341 338 339 339 335 330 329 328 329 327 330 325 322 318 317 321 321 318 320 317 318 317 318 322 317 315 313 316 316 312 321
344 344 343 328 323 322 323 339 339 339 335 336 331 326 326 323 325 324 323 323 318 319 324 326 319 323 318 321 320 316 319 320 320 319 313 310 311 319
335 343 340 326 320 319 321 325 322 328 329 326 322 322 320 319 322 323 322 321 323 323 324 326 322 320 320 319 317 315 318 317 317 317 316 311 309 310
331 330 321 316 313 317 319 321 321 328 326 322 320 319 318 321 322 321 322 322 322 325 328 327 326 324 322 321 320 318 314 314 315 315 315 316 318 319
325 328 326 321 319 326 324 325 326 325 324 321 319 320 319 319 319 319 319 323 321 319 321 324 323 322 320 319 319 319 318 316 315 315 315 316 317 319
326 328 326 326 328 328 327 324 323 325 322 320 318 317 318 317 317 319 320 321 318 320 320 320 319 319 319 319 316 319 317 315 315 314 314 313 315 317
325 327 326 326 326 327 326 323 322 322 320 317 317 317 316 316 316 317 323 323 321 320 319 319 317 316 315 315 320 317 316 315 314 314 314 312 312 315
326 326 327 327 326 324 322 320 319 319 317 316 317 318 317 316 316 317 322 321 321 320 320 318 316 315 312 311 316 315 315 314 313 312 313 313 312 313
324 326 325 324 325 326 323 321 320 319 318 318 319 319 319 318 315 316 321 322 321 319 317 316 314 314 314 314 314 314 309 314 313 311 311 313 314 315
324 325 326 325 325 325 325 324 323 322 321 321 321 321 321 319 316 317 319 315 318 319 316 316 316 316 318 317 313 311 313 310 313 314 312 311 310 310
327 327 328 327 327 326 326 326 325 322 322 323 323 323 322 321 319 318 318 321 320 320 318 317 315 316 316 314 313 313 312 312 312 312 314 314 311 308
329 330 329 327 327 327 325 324 325 324 323 324 324 323 322 320 319 319 319 323 321 319 319 316 314 315 314 313 313 312 309 305 310 310 312 314 314 314
Wind_Speed
5 5 4 3 3 3 2 3 5 1 2 3 2 3 2 2 3 5 5 6 6 7 7 10 11 13 13 13 13 13 13 13 13 13 12 12 13 12
4 5 4 3 4 4 3 3 3 4 2 4 3 3 3 3 5 5 5 7 9 8 10 13 14 15 14 14 14 15 15 15 14 14 13 13 12 12
5 6 7 5 4 3 3 2 2 3 3 2 3 2 3 3 4 5 5 5 5 10 12 14 16 15 13 13 15 16 16 15 14 14 14 13 12 11
6 5 7 3 5 4 3 4 3 4 3 4 3 3 5 4 5 4 3 3 4 5 8 11 13 13 13 14 14 14 14 15 15 15 14 14 13 11
7 7 7 6 6 4 5 5 4 3 3 3 3 3 4 3 3 3 3 2 1 5 6 8 8 9 10 12 13 15 14 14 15 14 15 14 13 13
7 7 6 7 7 6 5 6 4 4 3 3 3 3 3 3 2 3 3 1 2 3 5 5 6 7 8 10 10 12 13 12 14 13 14 14 15 14
7 8 7 8 10 8 5 6 5 4 4 4 3 1 3 2 3 2 2 2 3 1 2 2 3 4 5 6 8 10 11 12 12 12 13 12 13 13
7 7 7 9 10 12 12 10 6 5 5 3 3 5 5 4 3 3 3 1 3 0 3 5 2 4 4 3 5 5 8 11 13 14 14 13 14 14
7 7 6 6 8 6 8 11 10 12 12 6 6 6 4 5 4 3 3 3 3 2 1 3 2 4 3 3 7 8 8 9 13 13 13 11 13 12
7 8 8 7 7 7 6 6 7 6 7 7 8 7 5 4 5 4 3 2 2 4 3 2 2 3 2 1 4 6 7 7 5 8 12 14 13 11
6 6 7 7 9 10 6 7 7 7 5 8 7 8 8 8 6 4 2 2 2 2 1 2 2 3 2 2 3 7 6 8 7 5 5 6 7 7
7 7 12 11 10 12 9 8 8 8 5 3 2 1 4 3 7 6 4 4 2 3 3 2 1 2 4 1 2 3 3 5 6 7 7 3 3 2
5 7 6 13 14 13 13 8 10 5 6 5 4 2 3 3 4 5 5 4 4 4 3 2 2 1 2 3 2 2 2 2 3 4 5 5 5 7
4 4 4 8 10 13 11 14 12 8 4 4 3 4 3 4 4 4 5 5 4 5 3 4 2 3 2 2 3 1 2 2 2 2 2 3 2 2
6 7 8 8 5 4 8 9 11 6 5 4 4 4 4 4 3 1 2 3 4 3 3 4 3 2 2 3 3 3 3 1 2 2 2 1 1 1
4 4 4 2 4 4 3 6 4 4 5 4 4 3 2 2 2 2 2 2 2 1 1 1 3 2 2 4 3 3 2 2 2 1 1 1 1 2
4 2 2 3 3 4 3 4 3 3 4 3 3 4 4 3 3 4 3 3 3 3 2 2 2 2 4 4 2 2 2 2 1 1 1 1 1 1
2 3 4 4 5 5 5 4 4 6 5 4 4 4 4 4 4 2 2 4 4 3 2 2 2 1 2 4 7 2 2 1 1 0 0 2 3 1
3 5 6 7 7 6 5 5 4 5 5 4 5 6 4 4 4 4 3 3 3 3 3 3 3 2 2 2 2 2 2 1 1 1 2 2 2 2
4 6 7 7 6 6 5 5 5 4 5 5 6 6 6 5 4 4 5 5 4 3 3 3 3 4 4 2 3 2 4 2 2 1 1 1 1 4
6 7 8 7 7 6 6 6 6 5 5 5 6 7 8 7 5 5 5 7 5 3 4 4 5 7 3 2 2 3 1 6 2 3 2 2 1 1
6 8 10 9 8 7 6 6 6 6 6 7 8 8 8 8 7 7 6 4 6 5 4 2 3 3 3 4 3 3 1 0 3 6 6 5 4 2
9 9 9 8 7 7 6 7 7 7 7 8 8 8 7 7 6 6 6 6 5 5 4 4 3 2 2 3 3 2 2 2 1 1 2 10 11 7
Wind_Direction
225 216 216 205 208 186 185 169 148 212 273 289 248 249 266 294 287 276 295 270 263 251 242 243 246 245 237 235 234 234 232 230 228 229 227 229 233 237
215 218 220 205 203 196 203 182 155 152 196 213 249 250 252 269 271 255 267 262 259 251 251 254 247 237 239 234 236 236 232 229 228 227 228 230 230 233
224 214 230 211 201 204 207 192 178 162 175 287 229 236 258 254 255 247 258 256 259 249 246 248 251 245 236 232 236 239 234 229 229 227 228 226 225 228
222 212 226 205 222 219 210 209 207 205 165 206 238 247 227 236 253 277 263 229 238 244 251 249 246 243 235 234 238 248 246 234 222 224 224 225 222 215
210 211 219 204 227 211 211 209 205 209 202 185 239 235 258 250 261 274 276 279 274 318 308 296 273 259 253 253 249 244 235 235 244 225 218 218 222 218
215 218 219 207 215 222 225 226 212 212 201 218 235 242 229 251 227 243 289 266 289 281 286 283 298 299 270 253 244 232 231 236 240 235 238 217 216 215
218 223 224 222 221 215 207 232 211 215 212 222 244 255 262 262 231 249 263 301 290 254 309 301 306 290 281 277 251 230 223 222 231 229 232 234 237 215
227 225 228 233 238 234 232 239 217 214 230 193 212 225 245 211 193 210 212 249 302 263 351 299 219 289 277 278 337 298 255 230 230 233 222 211 222 228
212 224 236 236 233 244 244 239 242 233 226 194 231 227 235 207 179 201 225 228 231 278 26 288 304 309 356 20 17 360 333 279 234 220 224 212 216 203
222 225 228 234 227 221 233 250 247 234 217 209 220 237 219 212 188 178 185 189 281 282 175 258 299 279 274 246 37 14 22 9 315 226 224 206 208 194
232 233 224 236 246 229 223 241 250 252 256 240 230 240 236 230 174 128 203 165 279 265 236 168 290 293 294 307 329 0 4 14 12 3 290 258 235 211
259 228 216 228 235 231 225 225 238 246 221 202 202 226 255 250 189 187 155 203 194 309 233 155 306 345 319 294 307 353 348 9 358 15 351 296 200 168
238 250 231 211 225 227 211 221 231 224 221 203 190 217 257 250 234 219 192 174 179 235 219 174 204 239 242 295 297 306 355 328 349 334 4 8 224 206
209 260 238 230 231 234 226 228 227 179 158 162 173 221 247 249 248 225 202 196 197 218 187 184 236 204 230 273 273 325 281 291 307 307 342 353 15 274
169 233 255 271 263 262 254 247 178 169 162 176 191 207 216 215 182 172 121 180 192 227 238 208 195 207 236 246 280 311 336 351 334 319 337 332 113 199
202 227 247 230 225 251 171 217 231 193 184 196 206 222 176 181 192 178 169 169 141 235 297 169 139 167 258 236 235 279 219 289 1 331 310 311 189 152
145 126 179 182 188 225 212 198 197 218 204 199 204 183 193 181 197 188 190 174 188 194 203 198 217 223 252 254 277 258 276 255 274 291 338 311 255 184
148 194 197 198 214 205 217 215 198 209 226 168 177 186 199 196 195 215 201 189 194 189 209 178 156 316 295 263 224 261 245 236 180 188 20 310 304 256
235 210 228 234 224 221 205 204 218 206 186 182 190 192 191 204 183 196 213 224 204 192 206 169 173 176 236 258 258 217 224 219 161 156 192 217 285 316
194 237 236 218 221 213 206 213 216 191 184 191 198 194 191 192 181 192 194 207 211 189 195 189 191 189 196 220 274 238 195 184 171 173 193 196 283 343
204 222 237 232 227 211 201 199 209 206 198 181 207 206 201 187 196 195 213 189 185 179 217 215 221 199 150 119 254 270 196 231 198 183 167 165 194 251
214 224 241 232 222 220 212 202 211 202 200 201 206 209 204 194 194 195 200 190 195 194 204 155 149 148 172 209 234 243 153 214 250 240 228 195 167 215
226 229 232 227 211 213 210 208 205 218 203 206 208 203 194 193 196 190 199 203 180 179 175 165 161 178 238 213 211 251 193 183 216 221 246 229 239 251